Location: Angwan Shehu
(11.2514°N, 7.4613°E)
Time: 01:13:03
(UTC+00:00)

SL-24 R/B - Pass Details

Date: 14 November 2019
Orbit: 615 x 1347 km, 97.9° (Epoch: 05 December)

Event Time Altitude Azimuth Distance (km) Brightness Sun altitude
Exits shadow 18:11:06 14° 20° (NNE) 1,767 6.1 -16.8°
Maximum altitude 18:14:47 67° 102° (ESE) 739 4.2 -17.6°
Drops below altitude 10° 18:19:40 10° 184° (S) 2,287 7.2 -18.8°
Sets 18:22:09 0° 187° (S) 3,316 8.1 -19.4°
